Time,TemperatureF,DewpointF,PressureIn,WindDirection,WindDirectionDegrees,WindSpeedMPH,WindSpeedGustMPH,Humidity,HourlyPrecipIn,Conditions,Clouds,dailyrainin,SolarRadiationWatts/m^2,SoftwareType,DateUTC
2013-05-15 00:02:00,57.4,50.9,30.20,WSW,257,0.0,0.0,79,0.00,,,0.00,0.0,meteohub,2013-05-15 04:02:00,
2013-05-15 00:06:00,57.2,50.7,30.20,WSW,257,0.0,0.0,79,0.00,,,0.00,0.0,meteohub,2013-05-15 04:06:00,
2013-05-15 00:07:00,57.2,50.7,30.20,WSW,257,0.0,0.0,79,0.00,,,0.00,0.0,meteohub,2013-05-15 04:07:00,
2013-05-15 00:09:00,57.0,50.5,30.20,WSW,257,0.0,0.0,79,0.00,,,0.00,0.0,meteohub,2013-05-15 04:09:00,
2013-05-15 00:16:00,56.8,50.4,30.19,WSW,257,0.0,0.0,79,0.00,,,0.00,0.0,meteohub,2013-05-15 04:16:00,
2013-05-15 00:22:00,56.7,50.2,30.19,WSW,257,0.0,0.0,79,0.00,,,0.00,0.0,meteohub,2013-05-15 04:22:00,
2013-05-15 00:27:00,56.7,50.5,30.19,WSW,252,0.0,0.0,80,0.00,,,0.00,0.0,meteohub,2013-05-15 04:27:00,
2013-05-15 00:32:00,56.5,51.1,30.19,WSW,252,0.0,0.0,82,0.00,,,0.00,0.0,meteohub,2013-05-15 04:32:00,
2013-05-15 00:37:00,56.5,51.1,30.19,WSW,252,0.0,2.0,82,0.00,,,0.00,0.0,meteohub,2013-05-15 04:37:00,
2013-05-15 00:42:00,56.3,51.3,30.19,WSW,252,0.0,2.0,83,0.00,,,0.00,0.0,meteohub,2013-05-15 04:42:00,
2013-05-15 00:47:00,56.1,51.1,30.19,WSW,252,0.0,0.0,83,0.00,,,0.00,0.0,meteohub,2013-05-15 04:47:00,
2013-05-15 00:52:00,56.1,51.1,30.19,WSW,252,0.0,0.0,83,0.00,,,0.00,0.0,meteohub,2013-05-15 04:52:00,
2013-05-15 00:57:00,56.1,51.1,30.19,WSW,252,0.0,0.0,83,0.00,,,0.00,0.0,meteohub,2013-05-15 04:57:00,
2013-05-15 01:02:00,56.1,51.1,30.19,WSW,252,0.0,0.0,83,0.00,,,0.00,0.0,meteohub,2013-05-15 05:02:00,
2013-05-15 01:07:00,56.1,51.1,30.19,WSW,252,0.0,1.0,83,0.00,,,0.00,0.0,meteohub,2013-05-15 05:07:00,
2013-05-15 01:12:00,56.1,51.1,30.19,WSW,252,0.0,1.0,83,0.00,,,0.00,0.0,meteohub,2013-05-15 05:12:00,
2013-05-15 01:17:00,56.1,51.1,30.19,WSW,252,0.0,0.0,83,0.00,,,0.00,0.0,meteohub,2013-05-15 05:17:00,
2013-05-15 01:22:00,56.1,51.1,30.19,WSW,252,0.0,0.0,83,0.00,,,0.00,0.0,meteohub,2013-05-15 05:22:00,
2013-05-15 01:27:00,56.1,51.4,30.19,WSW,252,0.0,0.0,84,0.00,,,0.00,0.0,meteohub,2013-05-15 05:27:00,
2013-05-15 01:32:00,56.3,51.4,30.19,WSW,252,0.0,0.0,84,0.00,,,0.00,0.0,meteohub,2013-05-15 05:32:00,
2013-05-15 01:37:00,56.3,51.4,30.19,WSW,252,0.0,1.0,84,0.00,,,0.00,0.0,meteohub,2013-05-15 05:37:00,
2013-05-15 01:42:00,56.3,51.4,30.19,WSW,252,0.0,1.0,84,0.00,,,0.00,0.0,meteohub,2013-05-15 05:42:00,
2013-05-15 01:47:00,56.3,51.4,30.19,WSW,252,0.0,1.0,84,0.00,,,0.00,0.0,meteohub,2013-05-15 05:47:00,
2013-05-15 01:52:00,56.3,51.4,30.18,WSW,252,0.0,1.0,84,0.00,,,0.00,0.0,meteohub,2013-05-15 05:52:00,
2013-05-15 01:57:00,56.5,51.6,30.18,WSW,252,0.0,1.0,84,0.00,,,0.00,0.0,meteohub,2013-05-15 05:57:00,
2013-05-15 02:02:00,56.5,52.0,30.18,WSW,252,0.0,1.0,85,0.00,,,0.00,0.0,meteohub,2013-05-15 06:02:00,
2013-05-15 02:07:00,56.5,52.0,30.18,WSW,252,0.0,1.0,85,0.00,,,0.00,0.0,meteohub,2013-05-15 06:07:00,
2013-05-15 02:13:00,56.5,52.0,30.18,WSW,252,0.0,0.0,85,0.00,,,0.00,0.0,meteohub,2013-05-15 06:13:00,
2013-05-15 02:19:00,56.5,52.0,30.17,WSW,252,0.0,0.0,85,0.00,,,0.00,0.0,meteohub,2013-05-15 06:19:00,
2013-05-15 02:25:00,56.5,52.0,30.18,WSW,252,0.0,0.0,85,0.00,,,0.00,0.0,meteohub,2013-05-15 06:25:00,
2013-05-15 02:31:00,56.3,51.8,30.18,WSW,252,0.0,0.0,85,0.00,,,0.00,0.0,meteohub,2013-05-15 06:31:00,
2013-05-15 02:37:00,56.3,51.4,30.18,WSW,252,0.0,0.0,84,0.00,,,0.00,0.0,meteohub,2013-05-15 06:37:00,
2013-05-15 02:42:00,56.1,51.4,30.18,WSW,252,0.0,0.0,84,0.00,,,0.00,0.0,meteohub,2013-05-15 06:42:00,
2013-05-15 02:47:00,56.1,51.4,30.18,WSW,252,0.0,0.0,84,0.00,,,0.00,0.0,meteohub,2013-05-15 06:47:00,
2013-05-15 02:52:00,55.9,51.3,30.18,WSW,252,0.0,0.0,84,0.00,,,0.00,0.0,meteohub,2013-05-15 06:52:00,
2013-05-15 02:57:00,55.9,51.3,30.17,WSW,252,0.0,0.0,84,0.00,,,0.00,0.0,meteohub,2013-05-15 06:57:00,
2013-05-15 03:02:00,55.8,51.1,30.17,WSW,252,0.0,0.0,84,0.00,,,0.00,0.0,meteohub,2013-05-15 07:02:00,
2013-05-15 03:07:00,55.8,51.1,30.17,WSW,252,0.0,0.0,84,0.00,,,0.00,0.0,meteohub,2013-05-15 07:07:00,
2013-05-15 03:12:00,55.6,50.9,30.17,WSW,252,0.0,0.0,84,0.00,,,0.00,0.0,meteohub,2013-05-15 07:12:00,
2013-05-15 03:17:00,55.6,50.9,30.17,WSW,252,0.0,0.0,84,0.00,,,0.00,0.0,meteohub,2013-05-15 07:17:00,
2013-05-15 03:22:00,55.4,50.7,30.17,WSW,252,0.0,0.0,84,0.00,,,0.00,0.0,meteohub,2013-05-15 07:22:00,
2013-05-15 03:27:00,55.2,50.7,30.17,WSW,252,0.0,0.0,85,0.00,,,0.00,0.0,meteohub,2013-05-15 07:27:00,
2013-05-15 03:32:00,55.2,50.5,30.17,WSW,252,0.0,0.0,84,0.00,,,0.00,0.0,meteohub,2013-05-15 07:32:00,
2013-05-15 03:39:00,55.0,50.4,30.16,WSW,252,0.0,0.0,84,0.00,,,0.00,0.0,meteohub,2013-05-15 07:39:00,
2013-05-15 03:45:00,55.0,50.5,30.16,WSW,252,0.0,0.0,85,0.00,,,0.00,0.0,meteohub,2013-05-15 07:45:00,
2013-05-15 03:51:00,54.9,50.4,30.16,WSW,252,0.0,0.0,85,0.00,,,0.00,0.0,meteohub,2013-05-15 07:51:00,
2013-05-15 03:57:00,54.9,50.4,30.16,WSW,252,0.0,0.0,85,0.00,,,0.00,0.0,meteohub,2013-05-15 07:57:00,
2013-05-15 04:02:00,54.7,50.2,30.16,WSW,252,0.0,0.0,85,0.00,,,0.00,0.0,meteohub,2013-05-15 08:02:00,
2013-05-15 04:07:00,54.7,50.2,30.16,WSW,252,0.0,0.0,85,0.00,,,0.00,0.0,meteohub,2013-05-15 08:07:00,
2013-05-15 04:12:00,54.7,50.2,30.16,WSW,252,0.0,0.0,85,0.00,,,0.00,0.0,meteohub,2013-05-15 08:12:00,
2013-05-15 04:17:00,54.7,50.2,30.16,WSW,252,0.0,0.0,85,0.00,,,0.00,0.0,meteohub,2013-05-15 08:17:00,
2013-05-15 04:22:00,54.5,50.4,30.16,WSW,252,0.0,0.0,86,0.00,,,0.00,0.0,meteohub,2013-05-15 08:22:00,
2013-05-15 04:27:00,54.5,50.7,30.16,WSW,252,0.0,0.0,87,0.00,,,0.00,0.0,meteohub,2013-05-15 08:27:00,
2013-05-15 04:32:00,54.5,50.7,30.16,WSW,252,0.0,0.0,87,0.00,,,0.00,0.0,meteohub,2013-05-15 08:32:00,
2013-05-15 04:37:00,54.5,50.7,30.16,WSW,252,0.0,0.0,87,0.00,,,0.00,0.0,meteohub,2013-05-15 08:37:00,
2013-05-15 04:42:00,54.3,50.5,30.16,WSW,252,0.0,0.0,87,0.00,,,0.00,0.0,meteohub,2013-05-15 08:42:00,
2013-05-15 04:47:00,54.3,50.5,30.17,WSW,252,0.0,0.0,87,0.00,,,0.00,0.0,meteohub,2013-05-15 08:47:00,
2013-05-15 04:52:00,54.3,50.5,30.17,WSW,252,0.0,0.0,87,0.00,,,0.00,0.0,meteohub,2013-05-15 08:52:00,
2013-05-15 04:57:00,54.1,50.4,30.17,WSW,252,0.0,0.0,87,0.00,,,0.00,0.0,meteohub,2013-05-15 08:57:00,
2013-05-15 05:02:00,54.1,50.4,30.17,WSW,252,0.0,0.0,87,0.00,,,0.00,0.0,meteohub,2013-05-15 09:02:00,
2013-05-15 05:07:00,54.0,50.2,30.17,WSW,252,0.0,0.0,87,0.00,,,0.00,0.0,meteohub,2013-05-15 09:07:00,
2013-05-15 05:12:00,54.0,50.2,30.17,WSW,252,0.0,0.0,87,0.00,,,0.00,0.0,meteohub,2013-05-15 09:12:00,
2013-05-15 05:17:00,54.0,50.5,30.17,WSW,252,0.0,0.0,88,0.00,,,0.00,0.0,meteohub,2013-05-15 09:17:00,
2013-05-15 05:22:00,53.8,50.4,30.17,WSW,252,0.0,0.0,88,0.00,,,0.00,0.0,meteohub,2013-05-15 09:22:00,
2013-05-15 05:27:00,53.8,50.4,30.17,WSW,252,0.0,0.0,88,0.00,,,0.00,0.0,meteohub,2013-05-15 09:27:00,
2013-05-15 05:32:00,53.6,50.2,30.17,WSW,252,0.0,0.0,88,0.00,,,0.00,0.0,meteohub,2013-05-15 09:32:00,
2013-05-15 05:37:00,53.4,50.0,30.17,WSW,252,0.0,0.0,88,0.00,,,0.00,0.0,meteohub,2013-05-15 09:37:00,
2013-05-15 05:42:00,53.4,50.0,30.17,WSW,252,0.0,0.0,88,0.00,,,0.00,0.0,meteohub,2013-05-15 09:42:00,
2013-05-15 05:47:00,53.4,50.0,30.17,WSW,252,0.0,0.0,88,0.00,,,0.00,0.0,meteohub,2013-05-15 09:47:00,
2013-05-15 05:52:00,53.2,49.8,30.17,WSW,252,0.0,0.0,88,0.00,,,0.00,0.0,meteohub,2013-05-15 09:52:00,
2013-05-15 05:57:00,53.2,49.8,30.18,WSW,252,0.0,0.0,88,0.00,,,0.00,0.0,meteohub,2013-05-15 09:57:00,
2013-05-15 06:02:00,53.2,49.8,30.18,WSW,252,0.0,0.0,88,0.00,,,0.00,0.0,meteohub,2013-05-15 10:02:00,
2013-05-15 06:07:00,53.1,49.8,30.18,WSW,252,0.0,0.0,89,0.00,,,0.00,0.0,meteohub,2013-05-15 10:07:00,
2013-05-15 06:12:00,53.1,49.8,30.18,WSW,252,0.0,0.0,89,0.00,,,0.00,0.0,meteohub,2013-05-15 10:12:00,
2013-05-15 06:19:00,52.9,49.6,30.18,WSW,252,0.0,0.0,89,0.00,,,0.00,0.0,meteohub,2013-05-15 10:19:00,
2013-05-15 06:26:00,52.7,49.5,30.18,WSW,252,0.0,0.0,89,0.00,,,0.00,0.0,meteohub,2013-05-15 10:26:00,
2013-05-15 06:32:00,52.5,49.5,30.19,WSW,252,0.0,0.0,89,0.00,,,0.00,0.0,meteohub,2013-05-15 10:32:00,
2013-05-15 06:37:00,52.5,49.5,30.19,WSW,252,0.0,0.0,89,0.00,,,0.00,5.0,meteohub,2013-05-15 10:37:00,
2013-05-15 06:42:00,52.3,49.3,30.19,WSW,252,0.0,0.0,89,0.00,,,0.00,7.0,meteohub,2013-05-15 10:42:00,
2013-05-15 06:47:00,52.3,49.3,30.19,WSW,252,0.0,0.0,89,0.00,,,0.00,9.0,meteohub,2013-05-15 10:47:00,
2013-05-15 06:52:00,52.3,49.5,30.19,WSW,252,0.0,0.0,90,0.00,,,0.00,12.0,meteohub,2013-05-15 10:52:00,
2013-05-15 06:57:00,52.3,49.5,30.19,WSW,252,0.0,0.0,90,0.00,,,0.00,14.0,meteohub,2013-05-15 10:57:00,
2013-05-15 07:02:00,52.3,49.5,30.19,WSW,252,0.0,0.0,90,0.00,,,0.00,18.0,meteohub,2013-05-15 11:02:00,
2013-05-15 07:07:00,52.2,49.3,30.19,WSW,252,0.0,0.0,90,0.00,,,0.00,19.0,meteohub,2013-05-15 11:07:00,
2013-05-15 07:12:00,52.2,49.3,30.20,WSW,252,0.0,0.0,90,0.00,,,0.00,21.0,meteohub,2013-05-15 11:12:00,
2013-05-15 07:17:00,52.3,49.5,30.20,WSW,252,0.0,0.0,90,0.00,,,0.00,25.0,meteohub,2013-05-15 11:17:00,
2013-05-15 07:22:00,52.3,49.5,30.20,WSW,252,0.0,0.0,90,0.00,,,0.00,44.0,meteohub,2013-05-15 11:22:00,
2013-05-15 07:27:00,52.3,49.8,30.21,WSW,252,0.0,0.0,91,0.00,,,0.00,28.0,meteohub,2013-05-15 11:27:00,
2013-05-15 07:32:00,52.5,50.0,30.20,WSW,252,0.0,0.0,91,0.00,,,0.00,30.0,meteohub,2013-05-15 11:32:00,
2013-05-15 07:37:00,52.9,50.5,30.21,WSW,252,0.0,0.0,92,0.00,,,0.00,33.0,meteohub,2013-05-15 11:37:00,
2013-05-15 07:44:00,53.1,50.7,30.21,WSW,252,0.0,0.0,92,0.00,,,0.00,33.0,meteohub,2013-05-15 11:44:00,
2013-05-15 07:50:00,53.6,51.6,30.21,WSW,252,1.0,0.0,93,0.00,,,0.00,37.0,meteohub,2013-05-15 11:50:00,
2013-05-15 07:56:00,54.0,52.0,30.22,WSW,252,0.0,1.0,93,0.00,,,0.00,37.0,meteohub,2013-05-15 11:56:00,
2013-05-15 08:02:00,55.2,53.6,30.22,WSW,252,0.0,3.0,94,0.00,,,0.00,39.0,meteohub,2013-05-15 12:02:00,
2013-05-15 08:07:00,55.9,54.3,30.22,WSW,252,0.0,3.0,94,0.00,,,0.00,40.0,meteohub,2013-05-15 12:07:00,
2013-05-15 08:12:00,56.5,54.9,30.22,WSW,252,2.0,3.0,94,0.00,,,0.00,44.0,meteohub,2013-05-15 12:12:00,
2013-05-15 08:19:00,56.8,55.2,30.22,WSW,253,1.0,3.0,94,0.00,,,0.00,42.0,meteohub,2013-05-15 12:19:00,
2013-05-15 08:26:00,57.9,55.9,30.22,WSW,253,0.0,3.0,93,0.00,,,0.00,46.0,meteohub,2013-05-15 12:26:00,
2013-05-15 08:32:00,58.5,56.1,30.22,WSW,254,2.0,3.0,92,0.00,,,0.00,53.0,meteohub,2013-05-15 12:32:00,
2013-05-15 08:37:00,59.0,56.3,30.22,WSW,254,0.0,3.0,91,0.00,,,0.00,49.0,meteohub,2013-05-15 12:37:00,
2013-05-15 08:42:00,59.7,56.8,30.22,WSW,254,0.0,3.0,90,0.00,,,0.00,54.0,meteohub,2013-05-15 12:42:00,
2013-05-15 08:47:00,60.4,56.8,30.23,West,263,0.0,3.0,88,0.00,,,0.00,54.0,meteohub,2013-05-15 12:47:00,
2013-05-15 08:52:00,61.3,57.2,30.23,WSW,250,3.0,4.0,86,0.00,,,0.00,69.0,meteohub,2013-05-15 12:52:00,
2013-05-15 08:57:00,62.1,57.2,30.23,West,265,5.0,5.0,84,0.00,,,0.00,58.0,meteohub,2013-05-15 12:57:00,
2013-05-15 09:04:00,63.1,57.6,30.23,West,272,0.0,6.0,82,0.00,,,0.00,366.0,meteohub,2013-05-15 13:04:00,
2013-05-15 09:10:00,64.6,58.6,30.23,West,267,5.0,6.0,81,0.00,,,0.00,468.0,meteohub,2013-05-15 13:10:00,
2013-05-15 09:15:00,64.9,58.6,30.23,West,267,0.0,6.0,80,0.00,,,0.00,473.0,meteohub,2013-05-15 13:15:00,
2013-05-15 09:22:00,67.8,59.5,30.23,West,260,0.0,5.0,75,0.00,,,0.00,508.0,meteohub,2013-05-15 13:22:00,
2013-05-15 09:30:00,69.1,59.4,30.23,West,272,1.0,5.0,71,0.00,,,0.00,533.0,meteohub,2013-05-15 13:30:00,
2013-05-15 09:37:00,70.0,59.4,30.23,SW,227,5.0,5.0,69,0.00,,,0.00,557.0,meteohub,2013-05-15 13:37:00,
2013-05-15 09:42:00,70.5,59.0,30.23,West,267,0.0,6.0,67,0.00,,,0.00,575.0,meteohub,2013-05-15 13:42:00,
2013-05-15 09:47:00,70.9,58.5,30.23,West,264,2.0,6.0,65,0.00,,,0.00,591.0,meteohub,2013-05-15 13:47:00,
2013-05-15 09:52:00,71.2,58.8,30.23,SSW,211,0.0,9.0,65,0.00,,,0.00,540.0,meteohub,2013-05-15 13:52:00,
2013-05-15 09:57:00,71.6,58.8,30.23,South,185,0.0,9.0,64,0.00,,,0.00,606.0,meteohub,2013-05-15 13:57:00,
2013-05-15 10:04:00,72.7,58.8,30.23,West,274,0.0,9.0,62,0.00,,,0.00,555.0,meteohub,2013-05-15 14:04:00,
2013-05-15 10:10:00,73.0,58.8,30.22,West,267,1.0,9.0,61,0.00,,,0.00,661.0,meteohub,2013-05-15 14:10:00,
2013-05-15 10:16:00,73.4,58.6,30.22,West,263,2.0,8.0,60,0.00,,,0.00,680.0,meteohub,2013-05-15 14:16:00,
2013-05-15 10:22:00,73.8,57.6,30.22,SSW,213,3.0,6.0,57,0.00,,,0.00,700.0,meteohub,2013-05-15 14:22:00,
2013-05-15 10:28:00,73.8,58.1,30.22,West,279,4.0,6.0,58,0.00,,,0.00,696.0,meteohub,2013-05-15 14:28:00,
2013-05-15 10:37:00,74.8,58.6,30.21,SW,232,1.0,9.0,57,0.00,,,0.00,737.0,meteohub,2013-05-15 14:37:00,
2013-05-15 10:42:00,75.2,59.9,30.22,West,281,2.0,9.0,59,0.00,,,0.00,752.0,meteohub,2013-05-15 14:42:00,
2013-05-15 10:47:00,75.6,58.3,30.21,WSW,253,1.0,5.0,55,0.00,,,0.00,766.0,meteohub,2013-05-15 14:47:00,
2013-05-15 10:54:00,76.5,59.5,30.21,WSW,248,0.0,6.0,56,0.00,,,0.00,782.0,meteohub,2013-05-15 14:54:00,
2013-05-15 11:00:00,76.6,59.7,30.21,SW,228,0.0,6.0,56,0.00,,,0.00,800.0,meteohub,2013-05-15 15:00:00,
2013-05-15 11:06:00,76.8,58.5,30.21,West,269,0.0,5.0,53,0.00,,,0.00,812.0,meteohub,2013-05-15 15:06:00,
2013-05-15 11:12:00,76.8,58.5,30.21,West,279,0.0,5.0,53,0.00,,,0.00,824.0,meteohub,2013-05-15 15:12:00,
2013-05-15 11:19:00,77.5,57.9,30.21,West,269,0.0,7.0,51,0.00,,,0.00,842.0,meteohub,2013-05-15 15:19:00,
2013-05-15 11:25:00,77.7,58.6,30.21,West,263,0.0,10.0,52,0.00,,,0.00,856.0,meteohub,2013-05-15 15:25:00,
2013-05-15 11:31:00,78.6,59.5,30.21,WSW,249,0.0,10.0,52,0.00,,,0.00,867.0,meteohub,2013-05-15 15:31:00,
2013-05-15 11:37:00,79.3,58.5,30.21,SSE,163,0.0,10.0,49,0.00,,,0.00,877.0,meteohub,2013-05-15 15:37:00,
2013-05-15 11:42:00,79.0,59.4,30.21,WSW,241,0.0,10.0,51,0.00,,,0.00,888.0,meteohub,2013-05-15 15:42:00,
2013-05-15 11:47:00,78.4,57.7,30.21,SE,144,0.0,6.0,49,0.00,,,0.00,895.0,meteohub,2013-05-15 15:47:00,
2013-05-15 11:53:00,79.5,57.6,30.21,WSW,253,2.0,6.0,47,0.00,,,0.00,909.0,meteohub,2013-05-15 15:53:00,
2013-05-15 11:59:00,80.1,58.6,30.21,West,279,0.0,6.0,48,0.00,,,0.00,918.0,meteohub,2013-05-15 15:59:00,
2013-05-15 12:05:00,79.7,59.9,30.21,NNE,31,0.0,6.0,51,0.00,,,0.00,921.0,meteohub,2013-05-15 16:05:00,
2013-05-15 12:10:00,79.5,57.6,30.21,West,281,1.0,5.0,47,0.00,,,0.00,933.0,meteohub,2013-05-15 16:10:00,
2013-05-15 12:17:00,79.5,59.2,30.20,West,277,2.0,8.0,50,0.00,,,0.00,942.0,meteohub,2013-05-15 16:17:00,
2013-05-15 12:22:00,79.7,57.7,30.20,SW,219,2.0,8.0,47,0.00,,,0.00,946.0,meteohub,2013-05-15 16:22:00,
2013-05-15 12:27:00,79.5,59.2,30.20,West,269,4.0,7.0,50,0.00,,,0.00,953.0,meteohub,2013-05-15 16:27:00,
2013-05-15 12:33:00,79.9,60.1,30.20,SW,225,1.0,7.0,51,0.00,,,0.00,956.0,meteohub,2013-05-15 16:33:00,
2013-05-15 12:40:00,80.1,58.1,30.19,West,278,1.0,7.0,47,0.00,,,0.00,967.0,meteohub,2013-05-15 16:40:00,
2013-05-15 12:46:00,80.1,58.1,30.19,West,281,0.0,7.0,47,0.00,,,0.00,970.0,meteohub,2013-05-15 16:46:00,
2013-05-15 12:52:00,80.4,59.0,30.18,SW,235,0.0,7.0,48,0.00,,,0.00,974.0,meteohub,2013-05-15 16:52:00,
2013-05-15 13:02:00,81.1,59.5,30.18,NE,36,0.0,7.0,48,0.00,,,0.00,981.0,meteohub,2013-05-15 17:02:00,
2013-05-15 13:08:00,81.0,58.8,30.18,WSW,242,0.0,4.0,47,0.00,,,0.00,984.0,meteohub,2013-05-15 17:08:00,
2013-05-15 13:15:00,80.6,59.2,30.17,West,273,3.0,4.0,48,0.00,,,0.00,986.0,meteohub,2013-05-15 17:15:00,
2013-05-15 13:22:00,82.2,62.2,30.17,SW,226,0.0,5.0,51,0.00,,,0.00,997.0,meteohub,2013-05-15 17:22:00,
2013-05-15 17:26:00,85.6,57.9,30.07,WSW,238,1.0,7.0,39,0.00,,,0.00,497.0,meteohub,2013-05-15 21:26:00,
2013-05-15 18:11:00,85.1,59.4,30.06,West,270,0.0,6.0,42,0.00,,,0.00,251.0,meteohub,2013-05-15 22:11:00,
2013-05-15 18:17:00,84.9,59.2,30.06,West,276,2.0,4.0,42,0.00,,,0.00,195.0,meteohub,2013-05-15 22:17:00,
2013-05-15 18:27:00,84.7,59.2,30.06,WSW,244,1.0,4.0,42,0.00,,,0.00,204.0,meteohub,2013-05-15 22:27:00,
2013-05-15 18:34:00,84.4,58.8,30.06,West,267,2.0,5.0,42,0.00,,,0.00,151.0,meteohub,2013-05-15 22:34:00,
2013-05-15 18:40:00,84.2,58.6,30.06,West,267,0.0,5.0,42,0.00,,,0.00,91.0,meteohub,2013-05-15 22:40:00,
2013-05-15 18:46:00,83.8,59.0,30.06,SW,221,2.0,3.0,43,0.00,,,0.00,60.0,meteohub,2013-05-15 22:46:00,
2013-05-15 18:52:00,83.7,60.1,30.06,West,259,0.0,3.0,45,0.00,,,0.00,58.0,meteohub,2013-05-15 22:52:00,
2013-05-15 18:59:00,83.5,59.9,30.05,WSW,241,0.0,4.0,45,0.00,,,0.00,51.0,meteohub,2013-05-15 22:59:00,
2013-05-15 19:05:00,83.1,59.5,30.05,WSW,250,0.0,4.0,45,0.00,,,0.00,47.0,meteohub,2013-05-15 23:05:00,
2013-05-15 19:14:00,82.9,60.1,30.06,SW,214,0.0,3.0,46,0.00,,,0.00,40.0,meteohub,2013-05-15 23:14:00,
2013-05-15 19:21:00,82.8,60.4,30.06,SW,214,0.0,3.0,47,0.00,,,0.00,37.0,meteohub,2013-05-15 23:21:00,
2013-05-15 19:27:00,82.6,61.5,30.06,SW,214,0.0,1.0,49,0.00,,,0.00,26.0,meteohub,2013-05-15 23:27:00,
2013-05-15 19:34:00,82.2,62.2,30.06,SW,214,0.0,0.0,51,0.00,,,0.00,28.0,meteohub,2013-05-15 23:34:00,
2013-05-15 19:41:00,81.7,61.9,30.06,SW,214,0.0,0.0,51,0.00,,,0.00,25.0,meteohub,2013-05-15 23:41:00,
2013-05-15 19:47:00,81.1,61.3,30.06,SW,214,0.0,0.0,51,0.00,,,0.00,19.0,meteohub,2013-05-15 23:47:00,
2013-05-15 19:52:00,80.6,61.9,30.06,SW,214,0.0,0.0,53,0.00,,,0.00,18.0,meteohub,2013-05-15 23:52:00,
2013-05-15 19:57:00,80.1,61.3,30.06,SW,214,0.0,0.0,53,0.00,,,0.00,14.0,meteohub,2013-05-15 23:57:00,
2013-05-15 20:02:00,79.5,61.3,30.06,SW,214,0.0,0.0,54,0.00,,,0.00,12.0,meteohub,2013-05-16 00:02:00,
2013-05-15 20:10:00,78.8,61.3,30.06,SW,214,0.0,0.0,55,0.00,,,0.00,9.0,meteohub,2013-05-16 00:10:00,
2013-05-15 20:17:00,77.7,60.8,30.06,SW,214,0.0,0.0,56,0.00,,,0.00,0.0,meteohub,2013-05-16 00:17:00,
2013-05-15 20:22:00,77.2,60.8,30.06,SW,214,0.0,0.0,57,0.00,,,0.00,0.0,meteohub,2013-05-16 00:22:00,
2013-05-15 20:27:00,76.8,61.0,30.06,SW,214,0.0,0.0,58,0.00,,,0.00,0.0,meteohub,2013-05-16 00:27:00,
2013-05-15 20:33:00,76.3,61.3,30.06,SW,214,0.0,0.0,60,0.00,,,0.00,0.0,meteohub,2013-05-16 00:33:00,
2013-05-15 20:42:00,75.4,61.0,30.06,SW,214,0.0,0.0,61,0.00,,,0.00,0.0,meteohub,2013-05-16 00:42:00,
2013-05-15 20:47:00,75.0,61.2,30.06,SW,214,0.0,1.0,62,0.00,,,0.00,0.0,meteohub,2013-05-16 00:47:00,
2013-05-15 20:52:00,74.7,60.3,30.06,SSW,200,0.0,1.0,61,0.00,,,0.00,0.0,meteohub,2013-05-16 00:52:00,
2013-05-15 21:06:00,73.6,58.8,30.07,SSE,167,0.0,5.0,60,0.00,,,0.00,0.0,meteohub,2013-05-16 01:06:00,
2013-05-15 21:13:00,73.2,58.5,30.07,SSE,167,0.0,5.0,60,0.00,,,0.00,0.0,meteohub,2013-05-16 01:13:00,
2013-05-15 21:19:00,73.0,58.3,30.07,South,169,0.0,3.0,60,0.00,,,0.00,0.0,meteohub,2013-05-16 01:19:00,
2013-05-15 21:26:00,72.7,58.5,30.07,South,170,0.0,1.0,61,0.00,,,0.00,0.0,meteohub,2013-05-16 01:26:00,
2013-05-15 21:32:00,72.3,58.6,30.07,South,170,0.0,1.0,62,0.00,,,0.00,0.0,meteohub,2013-05-16 01:32:00,
2013-05-15 21:39:00,72.1,58.5,30.07,South,190,0.0,1.0,62,0.00,,,0.00,0.0,meteohub,2013-05-16 01:39:00,
2013-05-15 21:47:00,71.8,58.5,30.08,South,190,0.0,1.0,63,0.00,,,0.00,0.0,meteohub,2013-05-16 01:47:00,
2013-05-15 21:55:00,71.2,57.9,30.08,South,190,0.0,1.0,63,0.00,,,0.00,0.0,meteohub,2013-05-16 01:55:00,
2013-05-15 22:01:00,70.9,57.7,30.08,South,190,0.0,1.0,63,0.00,,,0.00,0.0,meteohub,2013-05-16 02:01:00,
2013-05-15 22:07:00,70.5,57.7,30.08,South,190,0.0,1.0,64,0.00,,,0.00,0.0,meteohub,2013-05-16 02:07:00,
2013-05-15 22:12:00,70.3,57.6,30.08,South,190,0.0,1.0,64,0.00,,,0.00,0.0,meteohub,2013-05-16 02:12:00,
2013-05-15 22:17:00,70.2,57.4,30.08,South,190,0.0,1.0,64,0.00,,,0.00,0.0,meteohub,2013-05-16 02:17:00,
2013-05-15 22:24:00,70.0,57.7,30.08,South,190,0.0,1.0,65,0.00,,,0.00,0.0,meteohub,2013-05-16 02:24:00,
2013-05-15 22:31:00,69.4,57.2,30.08,SE,128,0.0,1.0,65,0.00,,,0.00,0.0,meteohub,2013-05-16 02:31:00,
2013-05-15 22:37:00,69.3,57.4,30.09,SE,128,0.0,1.0,66,0.00,,,0.00,0.0,meteohub,2013-05-16 02:37:00,
2013-05-15 22:42:00,69.1,57.2,30.09,SE,128,0.0,1.0,66,0.00,,,0.00,0.0,meteohub,2013-05-16 02:42:00,
2013-05-15 22:50:00,68.7,56.8,30.09,SE,128,0.0,2.0,66,0.00,,,0.00,0.0,meteohub,2013-05-16 02:50:00,
2013-05-15 22:56:00,68.5,56.7,30.09,South,169,0.0,1.0,66,0.00,,,0.00,0.0,meteohub,2013-05-16 02:56:00,
2013-05-15 23:02:00,68.4,56.5,30.09,South,171,0.0,1.0,66,0.00,,,0.00,0.0,meteohub,2013-05-16 03:02:00,
2013-05-15 23:07:00,68.2,56.8,30.09,South,172,0.0,3.0,67,0.00,,,0.00,0.0,meteohub,2013-05-16 03:07:00,
2013-05-15 23:12:00,68.2,56.8,30.08,SSE,157,0.0,3.0,67,0.00,,,0.00,0.0,meteohub,2013-05-16 03:12:00,
2013-05-15 23:18:00,68.0,56.7,30.09,SSE,157,0.0,2.0,67,0.00,,,0.00,0.0,meteohub,2013-05-16 03:18:00,
2013-05-15 23:24:00,67.8,56.5,30.08,SE,142,0.0,3.0,67,0.00,,,0.00,0.0,meteohub,2013-05-16 03:24:00,
2013-05-15 23:30:00,67.6,56.3,30.08,South,189,0.0,3.0,67,0.00,,,0.00,0.0,meteohub,2013-05-16 03:30:00,
2013-05-15 23:37:00,67.6,56.3,30.08,South,189,0.0,4.0,67,0.00,,,0.00,0.0,meteohub,2013-05-16 03:37:00,
2013-05-15 23:42:00,67.6,56.3,30.08,SSE,166,0.0,4.0,67,0.00,,,0.00,0.0,meteohub,2013-05-16 03:42:00,
2013-05-15 23:49:00,67.6,56.3,30.08,South,171,0.0,4.0,67,0.00,,,0.00,0.0,meteohub,2013-05-16 03:49:00,